Regional Weather Roundup
Issued by NWS

Home | Current Version | Previous Version | Text Only | Print | Product List | Glossary On
Versions: 1 2 3 4 5 6 7 8 9 10 11 12 13 14 15 16 17 18 19 20 21 22 23 24 25 26 27
000
ASUS42 KTBW 190010
RWRFL
FLORIDA REGIONAL WEATHER ROUNDUP
NATIONAL WEATHER SERVICE TAMPA BAY RUSKIN FL
800 PM EDT FRI APR 18 2014

NOTE: "FAIR" INDICATES FEW OR NO CLOUDS BELOW 12,000 FEET WITH NO
SIGNIFICANT WEATHER AND/OR OBSTRUCTIONS TO VISIBILITY.


FLZ001>010-012>015-112-114-115-190100-
PANHANDLE FLORIDA

CITY           SKY/WX    TMP DP  RH WIND       PRES   REMARKS
PENSACOLA      CLOUDY    60  55  83 N12G21    29.98S
PENSACOLA NAS  CLOUDY    59  56  89 N14G21    29.99R
MILTON NAS     CLOUDY    58  53  84 N14G22    29.99S
CRESTVIEW      CLOUDY    59  55  87 N5        29.99R
DUKE FIELD     CLOUDY    58  56  93 N12       29.97R
VALPARAISO     CLOUDY    59  57  91 N14       29.96R
MARY ESTHER    CLOUDY    59  51  76 N16G26    29.95R
PANAMA CITY    LGT RAIN  57  54  89 N14G23    29.91S FOG
TYNDALL AFB    CLOUDY    57  54  88 NE15G23   29.92S
APALACHICOLA   CLOUDY    62  58  86 N17G25    29.88S

STATION/POSITION SKY/WX   TEMP    WIND        PRES    WAVE   SWELL
                          AIR SEA DIR/SP/G            HT/PER HT/PER
                          (F)     (DEG/KT/KT) (MB)    (FT/S) (FT/S)
30.1N   87.6W              61 66  360/ 21/ 27 1015.3R   5/ 7   3/ 7
29.2N   88.2W              64 71  360/ 25/ 31 1015.6R
28.8N   86.0W              65 70  350/ 19/ 23 1011.1R   5/ 6
PANAMA CITY BEAC           57 67   30/ 14/ 20 1012.8R
CAPE SAN BLAS    NOT AVBL
TOWER C                    68     220/  6/  7 1011.0R
28.5N   84.5W              71 69  200/ 16/ 19 1011.3F   5/ 6

$$
FLZ011-016>038-118-127-128-134-139-239-190100-
NORTH FLORIDA

CITY           SKY/WX    TMP DP  RH WIND       PRES   REMARKS
MARIANNA       CLOUDY    55  55 100 N21G33    29.95S FOG
TALLAHASSEE    LGT RAIN  62  58  86 N8        29.93R FOG
PERRY          CLOUDY    64  64 100 CALM      29.90S FOG
CROSS CITY       N/A     69  67  93 S7        29.91R
GAINESVILLE    CLOUDY    69  66  90 SW5       29.93S
MAYPORT NAS    LGT RAIN  68  65  90 S9        29.93R
JACKSONVILLE   LGT RAIN  64  64 100 NE5G22    29.93R
JAX NAS        LGT RAIN  73  70  90 S10       29.93R
JAX CRAIG      LGT RAIN  71  66  84 S6        29.93S
JAX CECIL      NOT AVBL
FERNANDINA BEA CLOUDY    64  63  94 NE6       29.93F
ST AUGUSTINE   CLOUDY    69  66  90 S7        29.96R FOG

STATION/POSITION SKY/WX   TEMP    WIND        PRES    WAVE   SWELL
                          AIR SEA DIR/SP/G            HT/PER HT/PER
                          (F)     (DEG/KT/KT) (MB)    (FT/S) (FT/S)
SHELL POINT                63      30/  6/ 11 1011.0F
KEATON BEACH               68     160/  8/ 10 1012.4R
CEDAR KEY                  69     180/  8/ 10 1012.9F
FERNANDINA                 62 66   50/  6/ 11 1013.2F
30.7N   81.3W                 64                N/A     6/ 7   2/11
MAYPORT                    68 65  160/  6/ 11   N/A
31.4N   80.9W              66 65  250/  4/  8 1014.1R   7/ 7   7/ 7
ST AUGUSTINE               66     200/  7/ 10 1014.6S

$$
FLZ040-043>046-052-053-057-058-063-144-190100-
INTERIOR CENTRAL FLORIDA

CITY           SKY/WX    TMP DP  RH WIND       PRES   REMARKS
OCALA          CLOUDY    68  63  83 S8        29.95S
THE VILLAGES   LGT RAIN  68  66  94 CALM      29.94F
LEESBURG       CLOUDY    70  67  90 S5        29.95S
SANFORD        LGT RAIN  69  67  93 CALM      29.95F
ORLANDO EXEC   CLOUDY    70  65  84 CALM      29.94F
ORLANDO INTL   CLOUDY    70  66  87 CALM      29.94F
KISSIMMEE      CLOUDY    70  68  94 CALM      29.95F
WINTER HAVEN   CLOUDY    70  65  84 CALM      29.95F
LAKELAND       MOCLDY    70  66  88 SE7       29.93F
BARTOW         FAIR      68  68 100 CALM      29.95F
OKEECHOBEE     RAIN      70  70 100 CALM      29.97S

$$
FLZ041-047-054-059-064-141-147-190100-
EAST CENTRAL FLORIDA

CITY           SKY/WX    TMP DP  RH WIND       PRES   REMARKS
DAYTONA BEACH  LGT RAIN  68  66  93 SW3       29.95F
DELAND         CLOUDY    68  66  94 CALM      29.96F
NEW SMYRNA BEA MOCLDY    68  66  94 SW12      29.96F
JFK SPACE CTR  CLOUDY    71  65  82 CALM      29.96S
TITUSVILLE     CLOUDY    70  64  83 VRB3      29.96F
CAPE CANAVERAL CLOUDY    72  68  88 CALM      29.95S
PATRICK AFB    LGT RAIN  71  68  89 NW6       29.96S
MELBOURNE      LGT RAIN  71  68  90 NW6       29.95F
VERO BEACH     LGT RAIN  76  73  91 SE15      29.95S
FT PIERCE      TSTM      76  71  85 S13       29.96R

STATION/POSITION SKY/WX   TEMP    WIND        PRES    WAVE   SWELL
                          AIR SEA DIR/SP/G            HT/PER HT/PER
                          (F)     (DEG/KT/KT) (MB)    (FT/S) (FT/S)
28.5N   80.2W              76 74  140/ 14/ 16 1014.5F
28.9N   78.5W              76 76  140/ 17/ 21 1016.3F   8/10   5/10
TRIDENT PIER               70 74  260/  6/ 14 1013.9R
28.4N   80.5W                 73                N/A     4/ 9   2/11
27.6N   80.2W                 73                N/A     6/10   2/11

$$
FLZ050-056-061-142-242-148-248-149-249-151-251-155-255-
160-260-190100-
WEST CENTRAL FLORIDA

CITY           SKY/WX    TMP DP  RH WIND       PRES   REMARKS
CRYSTAL RIVER  CLOUDY    68  64  88 CALM      29.92S
INVERNESS      CLOUDY    68  64  88 CALM      29.93F
BROOKSVILLE    CLOUDY    68  66  93 SE6       29.93F
CLEARWATER     CLOUDY    69  66  90 S7        29.92F
TAMPA INTL     CLOUDY    69  67  93 S3        29.93S
TAMPA EXEC     CLOUDY    72  66  83 CALM      29.93S
PLANT CITY     CLOUDY    70 N/A N/A CALM      29.95F
MACDILL AFB    CLOUDY    70  69  99 S5        29.93S
PETER O KNIGHT CLOUDY    72  68  88 S6        29.93S
ST PETERSBURG  CLOUDY    71  68  90 S10       29.91S
SARASOTA       CLOUDY    70  67  90 SE5       29.92S
VENICE         FAIR      70  68  94 SE5       29.94S

STATION/POSITION SKY/WX   TEMP    WIND        PRES    WAVE   SWELL
                          AIR SEA DIR/SP/G            HT/PER HT/PER
                          (F)     (DEG/KT/KT) (MB)    (FT/S) (FT/S)
CEDAR KEY                  69     180/  8/ 10 1012.9F
28.5N   84.5W              71 69  200/ 16/ 19 1011.3F   5/ 6
27.3N   84.3W                 72                N/A     4/ 6
CLEARWATER BEACH           70 72  150/  6/  8 1012.6S
MIDDLE TAMPA BAY           70     160/  7/  8 1013.6S
VENICE                     70 74  120/  4/  5 1013.1F

$$
FLZ066-069-070-075>078-162-262-165-265-190100-
SOUTHWEST FLORIDA AND KEYS

CITY           SKY/WX    TMP DP  RH WIND       PRES   REMARKS
PUNTA GORDA    CLOUDY    73  69  87 SE3       29.96F
FT MYERS       CLOUDY    77  71  82 W8        29.95R
SOUTHWEST INTL CLOUDY    77  70  79 SW10      29.94S
NAPLES         CLOUDY    79  75  87 S7        29.94R
MARATHON       PTCLDY    80  73  79 SE8       29.96S
KEY WEST NAS   MOCLDY    79  72  79 SE10      29.95F
KEY WEST INTL  PTCLDY    80  72  76 SE10      29.96S

STATION/POSITION SKY/WX   TEMP    WIND        PRES    WAVE   SWELL
                          AIR SEA DIR/SP/G            HT/PER HT/PER
                          (F)     (DEG/KT/KT) (MB)    (FT/S) (FT/S)
VENICE                     70 74  120/  4/  5 1013.1F
NAPLES                     78 78  170/  9/ 11 1014.0S
26.0N   85.6W              76 79  220/ 12/ 14 1013.5F   4/ 7   3/ 7
DRY TORTUGAS     NOT AVBL
NW FL BAY                  81     170/ 11/ 13 1014.8F
SOMBRERO KEY               79     130/ 12/ 13 1015.3R
LONG KEY                   79 82  140/ 10/ 12 1015.5R
MOLASSES REEF              79 79  160/ 10/ 11 1014.8R

$$
FLZ067-068-071>074-168-172>174-190100-
SOUTHEAST FLORIDA

CITY           SKY/WX    TMP DP  RH WIND       PRES   REMARKS
W PALM BEACH   CLOUDY    79  70  74 SE16      29.95S
FT LAUDER-EXEC MOCLDY    78  70  76 SE7       29.96S
FT LAUDERDALE  MOCLDY    80  71  74 SE13      29.95S
POMPANO BEACH  MOCLDY    80  71  74 S10       29.96S
PEMBROKE PINES MOCLDY    79  71  76 S13       29.97S
OPA LOCKA      PTCLDY    79  70  74 S12       29.96S
MIAMI          MOCLDY    79  70  74 S9        29.97S
WEST KENDALL   PTCLDY    79  71  76 SE8       29.96F
HOMESTEAD      PTCLDY    78  72  80 SE7       29.96F

STATION/POSITION SKY/WX   TEMP    WIND        PRES    WAVE   SWELL
                          AIR SEA DIR/SP/G            HT/PER HT/PER
                          (F)     (DEG/KT/KT) (MB)    (FT/S) (FT/S)
PORT EVERGLADES            79     150/ 10/ 13 1014.7
VIRGINIA KEY               79 80  180/  9/ 10 1014.8F
LAKE WORTH                 78 78  160/ 12/ 14 1014.4S
FOWEY ROCKS                79 79  160/ 14/ 15 1014.7S
SETTLEMENT POINT           77     130/ 11/ 15 1016.4R

$$




USA.gov is the U.S. government's official web portal to all federal, state and local government web resources and services.